SCP
3 2 2 2 3 3 3 3 3 3 3 3 4 4 4 3 3 3 3 3 3 3 3 2 2 2 2 2 2 2 2 2 2 1 2 2 3 2 2 2 3 3 3
3 2 2 2 3 3 3 3 3 3 3 4 4 4 4 4 4 4 4 4 4 3 3 3 3 2 2 2 2 2 2 2 2 2 2 2 2 2 2 2 2 2 2
3 3 3 3 3 3 3 3 3 4 4 4 4 4 4 4 5 5 5 6 5 5 4 4 4 3 3 3 3 3 3 2 2 2 2 2 2 2 2 2 2 3 2
4 4 3 3 3 3 3 3 4 4 4 4 4 4 4 4 5 5 6 6 7 6 6 5 5 4 4 4 4 4 3 3 2 2 2 2 2 2 2 2 3 3 3
5 4 4 3 3 2 3 3 4 4 3 4 4 4 4 4 5 5 6 6 7 7 7 6 5 5 4 4 4 4 3 3 3 3 2 2 2 2 2 2 2 3 3
5 5 4 3 3 3 3 3 3 4 4 5 5 5 5 4 4 4 4 5 6 6 6 6 5 5 5 4 3 3 3 3 3 3 3 3 3 3 2 2 2 3 3
5 5 5 5 4 4 4 4 4 4 5 5 6 6 5 4 3 3 3 3 4 4 4 4 4 5 5 5 4 3 3 3 3 3 3 3 3 3 3 3 3 3 4
6 6 7 7 6 6 5 4 5 5 5 5 6 5 4 3 2 2 2 2 3 3 3 3 3 4 5 6 6 5 5 5 4 3 3 3 3 3 3 3 4 4 5
5 6 7 7 7 6 5 6 7 7 6 5 4 3 3 2 1 1 1 2 3 3 3 3 3 4 5 5 6 7 7 6 5 4 3 3 2 2 2 3 4 5 6
3 4 5 5 6 6 6 8 10 9 7 6 4 3 3 3 2 2 2 3 3 3 3 3 3 3 3 4 5 6 6 6 5 4 3 3 2 2 2 3 4 5 5
3 3 3 3 4 5 7 10 12 11 9 7 5 4 3 4 4 3 2 3 3 3 3 4 3 2 2 2 3 4 4 4 3 3 3 3 2 2 3 3 3 4 4
3 3 3 3 4 5 7 9 10 10 9 8 7 6 6 6 6 4 3 2 2 3 3 3 3 1 1 0 1 1 1 2 2 2 3 3 3 3 3 3 3 3 3
3 3 3 4 5 6 7 7 7 8 8 8 8 9 9 9 8 5 2 1 1 2 2 2 2 1 0 0 0 0 0 1 2 2 2 2 3 3 3 2 2 3 3
5 5 4 4 6 7 7 6 7 7 8 9 10 11 12 11 8 5 3 2 1 1 2 2 1 1 1 1 1 1 1 1 1 1 2 2 2 3 2 2 2 3 3
10 8 6 5 6 7 7 6 7 7 8 8 9 11 12 10 6 3 3 2 2 2 2 2 2 2 2 2 2 2 2 1 1 1 2 2 3 3 3 3 3 3 3
11 9 7 7 7 7 7 7 6 6 5 5 6 7 7 5 3 2 1 2 2 2 3 3 4 4 4 3 3 2 2 2 2 2 2 2 3 3 3 3 3 3 3
9 8 7 7 8 7 7 7 6 5 3 2 3 3 2 2 1 1 1 1 1 2 3 4 4 5 5 4 3 3 2 2 2 2 2 3 3 3 3 3 3 3 3
7 6 5 6 7 6 6 6 6 5 3 3 2 1 1 1 1 0 0 1 2 3 4 5 5 5 5 5 4 4 3 3 3 3 3 2 2 2 2 2 3 3 3
4 4 4 5 6 5 4 4 4 4 4 4 3 2 1 1 1 1 1 2 4 6 6 7 6 6 5 5 5 5 4 4 3 3 3 2 2 2 2 2 2 2 2
3 3 3 5 5 5 4 4 3 3 3 3 3 3 2 2 2 1 2 3 5 7 7 7 7 6 5 6 6 6 5 4 3 3 2 2 1 1 1 1 1 2 2
2 2 3 4 5 5 5 4 3 3 3 3 3 3 2 2 2 2 2 3 5 6 7 7 6 5 6 6 7 6 5 4 3 3 2 2 1 1 1 1 1 1 1
4 4 3 4 4 5 5 4 4 3 3 3 3 2 2 2 2 2 2 3 4 6 5 5 5 5 6 7 7 7 5 4 3 3 2 2 1 1 1 1 1 1 0
5 4 4 4 4 4 4 4 3 3 3 3 2 2 1 1 1 1 2 2 2 4 4 4 4 5 6 7 7 7 5 4 3 3 3 2 2 1 1 1 1 1 1
5 4 3 3 3 3 3 3 2 2 2 2 2 2 2 1 1 1 1 1 1 2 3 3 3 4 4 5 5 5 4 3 3 3 4 4 3 2 2 1 1 1 1
4 3 2 2 2 2 2 2 1 1 2 2 2 2 2 2 2 2 2 2 2 2 2 2 2 2 2 2 3 2 2 1 1 3 4 5 5 4 3 2 2 2 1
3 2 2 2 2 2 1 1 1 1 1 2 2 1 1 1 2 2 2 2 2 2 1 2 2 1 1 1 1 1 1 0 0 1 4 6 6 5 4 3 2 2 2
Wind_Speed
4 3 3 2 2 2 2 1 2 2 2 2 2 2 2 2 2 2 3 3 3 3 3 3 3 3 3 3 3 3 4 4 5 4 3 2 2 4 2 4 4 4 4
4 4 3 2 2 2 1 1 2 2 2 2 2 2 2 2 2 2 3 3 3 4 4 4 4 3 4 4 4 4 4 4 5 6 4 3 4 4 4 5 4 4 4
4 4 3 2 2 1 1 1 1 1 2 2 2 2 2 2 2 3 3 4 4 4 4 4 4 4 5 4 5 5 4 4 5 6 5 3 4 3 4 5 5 4 5
4 3 3 3 2 2 1 1 1 1 2 2 2 2 2 3 3 3 3 3 4 4 4 4 4 4 5 5 5 5 5 6 5 6 6 4 4 3 4 4 4 4 4
4 3 3 3 2 2 2 1 1 2 2 1 2 2 2 2 2 2 3 3 4 4 4 4 4 3 4 5 5 5 5 6 5 5 5 4 4 3 4 4 5 4 4
4 4 3 3 3 2 2 2 2 2 2 2 2 2 3 2 3 3 4 4 4 4 4 4 4 3 3 4 5 6 7 7 7 6 5 5 5 5 4 5 5 5 5
4 4 3 3 3 2 2 2 2 2 2 2 2 3 2 1 1 2 4 5 4 4 4 4 4 3 4 4 4 7 7 8 8 8 7 7 6 4 5 6 5 6 5
3 3 4 3 3 3 3 3 3 2 2 2 2 2 2 1 1 2 4 5 4 4 4 4 5 5 4 6 6 5 6 5 6 6 6 7 6 5 6 7 6 6 6
3 4 4 4 4 3 3 3 3 3 2 2 2 2 2 1 0 2 5 4 3 4 4 4 4 4 3 5 6 5 6 5 3 4 5 6 6 6 6 6 6 6 5
2 3 3 3 3 3 3 3 2 2 3 3 2 2 2 2 0 1 4 4 3 4 3 3 1 3 3 4 5 5 6 5 5 4 4 6 7 7 7 7 6 6 5
1 2 3 3 3 3 2 2 2 2 2 2 2 3 3 2 1 1 3 4 4 4 3 3 1 2 1 3 5 5 6 7 6 6 5 4 4 4 5 5 5 6 6
1 2 2 2 2 2 1 1 2 2 3 3 3 3 3 2 1 1 3 4 6 4 4 3 2 2 1 4 4 4 6 7 5 4 4 3 3 3 3 4 4 5 5
2 2 2 2 2 1 2 2 2 3 3 3 3 3 3 2 1 3 4 4 5 4 3 3 3 3 5 4 4 5 5 4 4 4 4 3 3 3 3 2 3 4 5
2 2 2 2 2 2 2 2 3 3 3 3 3 3 3 2 2 1 2 3 5 5 4 3 5 6 6 5 4 4 4 3 4 4 4 4 3 3 3 3 3 3 3
2 2 2 3 2 2 2 1 2 1 2 3 3 3 3 3 2 4 4 3 3 3 4 3 3 2 3 3 3 3 3 3 4 4 4 4 3 3 3 3 3 3 3
2 2 2 2 2 2 2 2 1 2 1 2 3 4 3 2 1 1 2 3 4 4 4 3 3 3 4 3 3 3 3 3 4 4 4 4 4 4 3 3 3 3 3
2 2 2 2 2 3 3 3 3 3 4 5 5 4 5 4 3 3 3 3 4 3 3 4 4 4 4 4 4 4 4 4 4 5 4 4 4 4 3 3 3 3 3
2 1 2 2 2 3 3 3 3 3 3 2 4 6 6 6 6 5 4 3 3 3 4 4 4 4 4 4 4 3 4 4 4 4 4 4 4 4 3 3 3 3 3
2 2 2 2 3 3 3 3 4 4 4 3 2 2 5 6 6 5 5 4 4 3 3 4 4 4 4 3 3 3 4 4 4 4 4 4 4 4 4 4 3 3 3
2 1 3 3 3 3 3 4 4 3 3 3 3 3 2 3 3 3 4 3 4 4 4 4 4 4 4 3 3 4 4 4 4 4 4 4 3 4 4 4 3 3 3
2 2 3 4 3 3 4 3 3 4 4 3 3 2 3 4 4 4 3 3 3 3 3 4 3 4 4 3 3 4 5 4 3 4 3 3 4 3 3 3 3 3 3
3 2 3 3 3 3 3 3 4 4 4 5 4 2 3 4 4 4 4 3 3 3 3 3 3 3 3 3 3 4 4 4 4 4 4 4 3 3 4 4 4 3 3
3 3 3 2 3 3 4 4 4 4 4 4 4 3 2 3 3 3 3 3 3 3 3 3 3 3 3 3 3 3 4 4 4 5 4 4 4 4 4 4 5 4 4
3 3 3 3 3 3 3 3 3 4 4 4 3 3 3 3 3 3 3 3 3 3 3 3 3 3 4 4 3 3 3 4 5 4 5 4 4 4 4 4 5 5 4
3 3 3 3 3 3 3 3 3 3 3 3 3 3 3 3 3 3 3 3 3 3 3 3 2 3 4 4 3 3 4 4 4 6 4 4 4 5 5 5 4 4 4
3 3 3 2 2 2 3 3 2 2 3 3 3 3 3 3 3 3 3 3 2 2 3 3 3 3 4 3 3 3 2 2 3 5 5 4 4 4 4 4 5 4 4
Wind_Direction
185 192 200 192 198 222 229 243 270 284 291 291 294 292 279 268 262 258 264 243 249 252 253 248 259 285 285 285 276 271 273 272 273 277 276 263 257 276 269 265 255 250 218
184 188 192 193 194 223 232 254 271 271 278 283 284 278 271 268 263 265 272 267 259 254 252 257 262 260 264 274 280 278 277 276 273 278 276 263 252 255 259 263 266 262 261
184 183 173 177 184 224 243 247 267 284 287 279 269 271 276 281 279 278 277 277 274 272 272 267 265 265 266 271 270 272 272 265 264 268 269 266 260 258 264 261 264 264 264
186 185 177 182 191 219 241 250 257 271 283 292 284 274 272 276 282 292 291 284 279 279 279 277 274 270 270 273 270 269 271 273 264 264 267 259 255 252 256 262 260 247 258
188 194 189 193 194 211 231 254 266 273 275 289 289 287 285 278 311 326 297 285 284 284 283 281 283 296 310 296 294 292 283 274 271 268 268 266 262 262 260 267 270 263 250
196 199 187 193 200 209 218 226 244 257 269 275 275 277 281 315 39 357 306 296 289 289 289 287 274 251 259 250 261 273 280 277 280 279 276 276 269 266 271 272 276 274 268
200 202 196 200 208 214 230 227 239 247 250 269 285 289 297 345 49 324 305 293 292 297 296 293 295 317 293 293 257 238 245 248 259 271 281 282 280 278 273 269 272 278 282
200 212 211 205 206 213 222 235 241 246 251 257 268 281 283 314 66 308 298 275 280 282 284 288 293 301 325 318 303 300 289 272 258 255 272 280 284 283 273 268 271 267 261
198 213 209 202 206 213 220 229 242 245 247 250 257 267 270 288 52 305 294 279 275 279 281 290 295 302 344 316 294 294 293 289 263 255 261 267 278 278 277 273 267 264 265
205 205 198 202 208 216 224 230 228 235 248 257 267 276 274 288 297 264 278 280 290 286 274 266 266 295 323 316 294 298 298 303 305 294 267 250 249 245 238 250 262 265 268
198 186 190 207 217 219 221 222 221 228 248 261 267 266 265 275 240 227 264 281 294 294 299 297 356 110 282 297 290 296 301 296 286 283 280 276 261 252 247 244 256 266 268
227 204 199 218 233 202 202 224 234 238 235 238 241 254 258 243 258 220 232 259 296 296 301 315 8 48 315 289 284 299 293 284 277 283 287 288 287 284 282 277 265 265 270
233 216 213 219 224 230 215 219 231 235 248 255 256 265 272 268 202 193 207 228 250 268 300 338 325 288 272 258 249 263 269 275 287 291 295 300 303 308 299 281 270 262 255
229 224 212 213 215 215 239 238 247 255 259 259 265 274 278 273 288 267 220 209 216 238 263 254 233 238 250 268 266 251 259 286 293 295 300 302 305 297 282 282 276 264 264
236 227 221 220 217 216 225 258 258 277 299 288 284 278 280 286 351 11 331 317 314 319 304 288 289 288 282 288 291 293 289 285 280 286 292 298 298 297 295 290 285 284 279
243 244 250 240 226 234 229 221 167 235 169 234 272 287 293 307 344 351 316 308 313 313 290 286 296 299 298 300 301 297 295 299 296 293 294 296 295 297 298 293 290 285 286
265 263 266 259 237 241 244 246 238 214 207 220 228 240 256 272 269 265 260 263 270 262 258 277 287 294 298 298 298 301 309 316 305 298 302 301 300 300 298 296 295 296 292
260 229 244 250 249 253 254 257 256 258 248 241 211 212 226 232 236 241 239 237 237 222 255 274 283 289 291 295 300 308 313 315 306 300 301 303 302 303 309 307 304 303 295
267 265 261 259 249 251 254 258 262 264 265 269 275 204 201 209 211 223 213 240 264 261 264 277 287 292 293 294 296 299 299 299 305 301 301 302 303 308 313 309 307 310 289
261 274 269 264 256 249 244 247 254 261 268 277 279 283 246 234 242 213 210 242 266 276 284 287 293 299 297 296 291 291 291 292 295 292 303 308 307 307 305 305 311 302 292
272 232 230 260 261 263 262 262 263 263 265 268 273 289 295 281 281 276 264 250 260 276 289 294 297 295 295 296 295 292 290 298 306 303 300 299 299 301 302 305 306 307 308
280 269 254 259 264 265 275 274 269 265 265 266 268 240 214 256 276 278 281 280 276 274 276 280 286 294 307 303 295 296 300 297 296 295 298 297 290 294 299 303 304 301 302
281 281 278 277 276 266 261 265 268 273 277 276 276 281 265 272 281 284 286 287 283 281 288 293 295 300 306 303 304 304 306 310 310 311 304 298 298 296 295 297 297 303 310
279 283 288 288 279 276 277 278 278 280 282 285 286 283 279 278 283 293 297 298 299 296 292 291 299 310 313 310 310 314 327 332 319 310 309 307 302 299 295 295 296 302 302
302 298 293 289 288 290 295 298 300 302 305 309 311 311 310 310 308 309 304 296 294 296 307 308 310 311 309 313 327 346 5 356 334 321 309 301 299 299 296 292 295 297 299
310 306 305 305 307 307 308 313 317 319 320 320 318 316 317 320 325 325 319 317 314 316 321 323 332 327 314 310 355 13 8 349 327 312 302 297 294 299 301 297 293 288 289